Location: Raitis
(47.2167°N, 11.3833°E)
Time: 15:57:00
(UTC+00:00)

CSL-04 Debris - Pass Details

Date: 03 March 2021
Orbit: 826 x 848 km, 98.9° (Epoch: 19 April)

Event Time Altitude Azimuth Distance (km) Brightness Sun altitude
Rises 18:22:54 0° 168° (SSE) 3,370 7.1 -14.4°
Reaches altitude 10° 18:25:14 10° 170° (S) 2,444 6.4 -14.8°
Maximum altitude 18:30:40 76° 256° (WSW) 870 4.4 -15.7°
Drops below altitude 10° 18:36:10 10° 342° (NNW) 2,476 7.0 -16.6°
Sets 18:38:33 0° 345° (NNW) 3,418 7.7 -17.0°
